Date String (YYYY-MM-DD hh:mm:ss) UTC,Instrument flags,Ambient pressure (hPa),Sample flow (lpm),Bypass flow (lpm),Sample temperature (°C),Ambient temperature (°C),ASC tube jacket temperature (°C),LED temperature (°C),Box temperature (°C),Sample RH (%),Span deviation,Mass concentration (μg/m³),Mass concentration (μg/m³),Mass concentration (μg/m³)
DateTimeUTC,F1_M11,P_M11,Q1_M11,Q2_M11,T1_M11,T2_M11,T3_M11,T4_M11,T5_M11,U1_M11,ZSPAN_M11,X0_M11,X2_M11,X1_M11
2022-08-19 14:00:00,,0829.3,4.99,0.00,29.8,28.2,00.0,38.7,31.6,22.7,0000.0,0013.42,0007.52,0006.59
2022-08-19 14:01:00,,0829.2,5.01,0.00,29.8,28.3,00.0,38.7,31.7,22.6,0000.0,0012.90,0007.52,0006.59
2022-08-19 14:02:00,,0829.3,5.00,0.00,29.8,28.4,00.0,38.7,31.7,23.2,0000.0,0013.32,0007.54,0006.60
2022-08-19 14:03:00,,0829.4,5.00,0.00,29.8,28.5,00.0,38.7,31.7,23.1,0000.0,0014.47,0007.55,0006.59
2022-08-19 14:04:00,,0829.4,5.00,0.00,29.9,28.6,00.0,38.7,31.7,22.9,0000.0,0014.48,0007.52,0006.59
2022-08-19 14:05:00,,0829.3,5.01,0.00,29.9,28.7,00.0,38.7,31.8,23.4,0000.0,0014.23,0007.43,0006.57
2022-08-19 14:06:00,,0829.0,5.01,0.00,29.9,28.7,00.0,38.7,31.8,22.8,0000.0,0014.10,0007.37,0006.55
2022-08-19 14:07:00,,0829.0,5.00,0.00,29.9,28.8,00.0,38.7,31.8,22.8,0000.0,0014.01,0007.31,0006.54
2022-08-19 14:08:00,,0829.0,5.00,0.00,29.9,28.8,00.0,38.7,31.8,22.6,0000.0,0014.76,0007.28,0006.52
2022-08-19 14:09:00,,0828.9,5.00,0.00,29.9,28.9,00.0,38.7,31.8,22.2,0000.0,0014.98,0007.24,0006.50
2022-08-19 14:10:00,,0828.9,4.99,0.00,30.0,28.9,00.0,38.7,31.9,22.1,0000.0,0015.24,0007.25,0006.48
2022-08-19 14:11:00,,0828.9,5.02,0.00,30.0,29.0,00.0,38.7,31.9,22.3,0000.0,0014.95,0007.20,0006.47
2022-08-19 14:12:00,,0828.9,5.00,0.00,30.0,29.0,00.0,38.7,31.9,22.3,0000.0,0015.24,0007.21,0006.47
2022-08-19 14:13:00,,0828.8,5.01,0.00,30.0,29.0,00.0,38.8,31.9,23.4,0000.0,0015.18,0007.21,0006.46
2022-08-19 14:14:00,,0828.8,5.00,0.00,30.1,29.1,00.0,38.8,32.0,22.9,0000.0,0013.59,0007.19,0006.45
2022-08-19 14:15:00,,0828.9,4.99,0.00,30.1,29.1,00.0,38.8,32.0,22.8,0000.0,0013.58,0007.23,0006.45
2022-08-19 14:16:00,,0828.9,5.01,0.00,30.1,29.1,00.0,38.8,32.0,23.1,0000.0,0013.64,0007.29,0006.47
2022-08-19 14:17:00,,0828.9,5.01,0.00,30.1,29.2,00.0,38.8,32.0,24.4,0000.0,0013.79,0007.35,0006.48
2022-08-19 14:18:00,,0828.9,4.99,0.00,30.1,29.2,00.0,38.8,32.0,24.4,0000.0,0014.46,0007.45,0006.51
2022-08-19 14:19:00,,0829.0,5.00,0.00,30.2,29.2,00.0,38.9,32.1,24.1,0000.0,0014.59,0007.55,0006.55
2022-08-19 14:20:00,,0829.0,5.00,0.00,30.2,29.3,00.0,38.9,32.1,24.0,0000.0,0014.36,0007.59,0006.58
2022-08-19 14:21:00,,0829.0,5.01,0.00,30.2,29.2,00.0,38.9,32.1,23.7,0000.0,0014.13,0007.61,0006.59
2022-08-19 14:22:00,,0829.0,4.99,0.00,30.2,28.6,00.0,38.8,32.0,23.8,0000.0,0014.28,0007.66,0006.60
2022-08-19 14:23:00,,0829.0,5.00,0.00,30.1,27.8,00.0,38.8,31.7,24.0,0000.0,0014.50,0007.75,0006.61
2022-08-19 14:24:00,,0829.0,5.01,0.00,30.0,27.5,00.0,38.8,31.6,25.0,0000.0,0014.80,0007.82,0006.63
2022-08-19 14:25:00,,0829.0,5.00,0.00,29.9,27.5,00.0,38.7,31.5,25.5,0000.0,0015.32,0007.94,0006.65
2022-08-19 14:26:00,,0829.0,4.99,0.00,29.9,27.6,00.0,38.7,31.5,25.3,0000.0,0016.43,0008.03,0006.66
2022-08-19 14:27:00,,0829.1,5.00,0.00,29.8,27.7,00.0,38.7,31.5,26.0,0000.0,0018.05,0008.08,0006.65
2022-08-19 14:28:00,,0829.1,4.99,0.00,29.8,27.8,00.0,38.7,31.6,26.2,0000.0,0018.35,0008.10,0006.63
2022-08-19 14:29:00,,0829.1,5.00,0.00,29.8,28.0,00.0,38.7,31.6,27.4,0000.0,0018.55,0008.15,0006.60
2022-08-19 14:30:00,,0829.1,5.01,0.00,29.8,28.1,00.0,38.7,31.6,27.9,0000.0,0019.18,0008.13,0006.58
2022-08-19 14:31:00,,0829.1,5.00,0.00,29.8,28.3,00.0,38.6,31.6,28.1,0000.0,0019.70,0008.21,0006.56
2022-08-19 14:32:00,,0829.2,4.99,0.00,29.8,28.4,00.0,38.6,31.6,28.3,0000.0,0019.55,0008.22,0006.54
2022-08-19 14:33:00,,0829.2,4.99,0.00,29.8,28.5,00.0,38.6,31.7,28.1,0000.0,0020.15,0008.23,0006.54
2022-08-19 14:34:00,,0829.2,4.99,0.00,29.8,28.6,00.0,38.6,31.7,27.8,0000.0,0020.05,0008.21,0006.52
2022-08-19 14:35:00,,0829.2,4.99,0.00,29.8,28.6,00.0,38.6,31.7,27.4,0001.0,0019.70,0008.13,0006.49
2022-08-19 14:36:00,,0829.3,5.00,0.00,29.9,28.7,00.0,38.7,31.7,27.4,0000.1,0019.83,0007.98,0006.44
2022-08-19 14:37:00,,0829.3,5.00,0.00,29.9,28.8,00.0,38.7,31.7,26.7,0000.0,0018.97,0007.88,0006.41
2022-08-19 14:38:00,,0829.3,5.00,0.00,29.9,28.8,00.0,38.7,31.7,26.8,0000.0,0017.88,0007.79,0006.41
2022-08-19 14:39:00,,0829.2,4.99,0.00,29.9,28.9,00.0,38.7,31.8,26.1,0000.0,0017.41,0007.77,0006.42
2022-08-19 14:40:00,,0829.2,5.00,0.00,30.0,28.9,00.0,38.7,31.9,26.8,0000.0,0016.82,0007.65,0006.42
2022-08-19 14:41:00,,0829.2,5.00,0.00,30.0,29.0,00.0,38.7,31.9,27.1,0000.0,0015.60,0007.55,0006.40
2022-08-19 14:42:00,,0829.2,4.99,0.00,30.0,29.0,00.0,38.7,31.9,26.8,0000.0,0014.48,0007.50,0006.39
2022-08-19 14:43:00,,0829.2,5.00,0.00,30.0,29.0,00.0,38.7,31.9,26.7,0000.0,0014.79,0007.47,0006.38
2022-08-19 14:44:00,,0829.2,5.01,0.00,30.0,29.1,00.0,38.7,32.0,25.8,0000.0,0014.29,0007.44,0006.36
2022-08-19 14:45:00,,0829.2,5.00,0.00,30.1,29.1,00.0,38.8,32.0,26.0,0000.0,0013.74,0007.39,0006.36
2022-08-19 14:46:00,,0829.3,4.99,0.00,30.1,29.2,00.0,38.8,32.0,25.7,0000.0,0013.65,0007.37,0006.36
2022-08-19 14:47:00,,0829.2,5.00,0.00,30.1,29.2,00.0,38.8,32.0,24.5,0000.0,0013.06,0007.37,0006.36
2022-08-19 14:48:00,,0829.3,5.00,0.00,30.1,29.2,00.0,38.8,32.1,24.5,0000.0,0012.55,0007.33,0006.35
2022-08-19 14:49:00,,0829.2,4.99,0.00,30.2,29.3,00.0,38.9,32.1,24.2,0000.0,0012.17,0007.27,0006.32
2022-08-19 14:50:00,,0829.2,5.00,0.00,30.2,29.3,00.0,38.9,32.1,24.2,0000.0,0012.05,0007.22,0006.29
2022-08-19 14:51:00,,0829.2,5.00,0.00,30.2,29.3,00.0,38.9,32.1,23.9,0000.0,0012.86,0007.20,0006.26
2022-08-19 14:52:00,,0829.2,5.02,0.00,30.2,29.3,00.0,38.9,32.1,23.3,0000.0,0013.01,0007.15,0006.23
2022-08-19 14:53:00,,0829.3,5.01,0.00,30.3,29.4,00.0,38.9,32.2,23.2,0000.0,0013.30,0007.12,0006.20
2022-08-19 14:54:00,,0829.2,4.99,0.00,30.3,29.1,00.0,38.9,32.1,23.0,0000.0,0012.82,0007.05,0006.16
2022-08-19 14:55:00,,0829.2,5.00,0.00,30.2,28.2,00.0,38.9,31.8,23.1,0000.0,0012.73,0007.00,0006.14
2022-08-19 14:56:00,,0829.2,4.99,0.00,30.1,27.5,00.0,38.8,31.7,23.7,0000.0,0013.32,0006.97,0006.11
2022-08-19 14:57:00,,0829.2,5.00,0.00,30.0,27.4,00.0,38.8,31.6,23.3,0000.0,0013.43,0006.96,0006.07
2022-08-19 14:58:00,,0829.2,5.00,0.00,29.9,27.4,00.0,38.7,31.5,23.5,0000.0,0013.38,0006.93,0006.04
2022-08-19 14:59:00,,0829.3,4.99,0.00,29.9,27.6,00.0,38.7,31.5,23.9,0000.0,0013.24,0006.87,0006.02
